Date String (YYYY-MM-DD hh:mm:ss) UTC,Instrument flags,absolute air pressure of the measurement (hPa),sample flow rate (lpm),inlet stack bypass flow (lpm),air temperature of the measurement (°C),ambient temperature measured by the external sensor (°C),aerosol sample conditioner tube jacket temperature (°C),OPC LED temperature (°C),internal box temperature (°C),relative humidity of the measurement (%),span deviation,mass concentration of particles derived from Lorenz-Mie calculation of OPC scattering (μg/m³),mass concentration of particles derived from Lorenz-Mie calculation of OPC scattering (μg/m³),mass concentration of particles derived from Lorenz-Mie calculation of OPC scattering (μg/m³)
DateTimeUTC,F1_M11,P_M11,Q1_M11,Q2_M11,T1_M11,T2_M11,T3_M11,T4_M11,T5_M11,U1_M11,ZSPAN_M11,X2_M11,X0_M11,X1_M11
2023-07-10 18:00:00,SystemResetWarning,0830.7,5.01,000.00,029.2,027.3,000.0,037.5,030.6,19.1,0000.0,0003.82,0008.85,0003.41
2023-07-10 18:01:00,SystemResetWarning,0830.6,4.98,000.00,029.2,027.2,000.0,037.5,030.6,18.4,0000.0,0003.85,0009.11,0003.42
2023-07-10 18:02:00,SystemResetWarning,0830.6,5.00,000.00,029.2,025.9,000.0,037.4,030.4,21.2,0000.0,0003.87,0009.45,0003.42
2023-07-10 18:03:00,SystemResetWarning,0830.6,5.00,000.00,029.1,025.0,000.0,037.3,030.2,19.9,0000.0,0003.86,0009.43,0003.42
2023-07-10 18:04:00,SystemResetWarning,0830.6,5.00,000.00,029.0,025.1,000.0,037.3,030.1,20.3,0000.0,0003.85,0009.03,0003.43
2023-07-10 18:05:00,SystemResetWarning,0830.6,5.01,000.00,028.9,025.5,000.0,037.3,030.1,20.8,0000.0,0003.86,0008.61,0003.44
2023-07-10 18:06:00,SystemResetWarning,0830.6,5.01,000.00,028.9,025.9,000.0,037.3,030.2,21.1,0000.0,0003.85,0008.02,0003.44
2023-07-10 18:07:00,SystemResetWarning,0830.6,4.99,000.00,028.9,026.3,000.0,037.3,030.2,19.8,0000.0,0003.85,0007.69,0003.44
2023-07-10 18:08:00,SystemResetWarning,0830.6,5.00,000.00,028.9,026.7,000.0,037.4,030.3,19.4,0000.0,0003.85,0007.20,0003.45
2023-07-10 18:09:00,SystemResetWarning,0830.6,4.99,000.00,029.0,027.0,000.0,037.4,030.4,20.1,0000.0,0003.83,0006.97,0003.45
2023-07-10 18:10:00,SystemResetWarning,0830.6,5.01,000.00,029.0,027.3,000.0,037.4,030.5,20.3,0000.0,0003.84,0007.04,0003.46
2023-07-10 18:11:00,SystemResetWarning,0830.6,5.00,000.00,029.0,027.3,000.0,037.4,030.6,19.6,0000.0,0003.86,0007.69,0003.47
2023-07-10 18:12:00,SystemResetWarning,0830.6,4.98,000.00,029.0,026.1,000.0,037.3,030.4,21.5,0000.0,0003.86,0007.83,0003.48
2023-07-10 18:13:00,SystemResetWarning,0830.6,5.01,000.00,029.0,025.1,000.0,037.2,030.2,22.0,0000.0,0003.84,0007.37,0003.49
2023-07-10 18:14:00,SystemResetWarning,0830.5,5.02,000.00,028.9,025.1,000.0,037.1,030.1,22.0,0000.0,0003.86,0007.23,0003.49
2023-07-10 18:15:00,SystemResetWarning,0830.6,5.00,000.00,028.8,025.4,000.0,037.2,030.0,20.2,0000.0,0003.88,0007.65,0003.51
2023-07-10 18:16:00,SystemResetWarning,0830.6,5.00,000.00,028.8,025.9,000.0,037.2,030.1,19.4,0000.0,0003.93,0008.39,0003.52
2023-07-10 18:17:00,SystemResetWarning,0830.4,5.01,000.00,028.8,026.3,000.0,037.2,030.2,18.2,0000.0,0003.95,0008.84,0003.53
2023-07-10 18:18:00,SystemResetWarning,0830.4,5.00,000.00,028.8,026.7,000.0,037.2,030.3,18.1,0000.0,0003.97,0009.65,0003.54
2023-07-10 18:19:00,SystemResetWarning,0830.7,4.99,000.00,028.9,027.0,000.0,037.3,030.4,16.8,0000.0,0003.95,0009.67,0003.55
2023-07-10 18:20:00,SystemResetWarning,0830.5,4.99,000.00,028.9,027.3,000.0,037.3,030.5,17.6,0000.0,0003.96,0009.67,0003.55
2023-07-10 18:21:00,SystemResetWarning,0830.4,5.00,000.00,028.9,026.8,000.0,037.2,030.5,20.0,0000.0,0003.96,0009.83,0003.56
2023-07-10 18:22:00,SystemResetWarning,0830.4,5.00,000.00,028.9,025.4,000.0,037.1,030.3,20.5,0000.0,0003.99,0009.99,0003.56
2023-07-10 18:23:00,SystemResetWarning,0830.4,5.00,000.00,028.8,025.0,000.0,037.0,030.2,19.5,0000.0,0003.97,0009.77,0003.56
2023-07-10 18:24:00,SystemResetWarning,0830.3,5.01,000.00,028.8,025.2,000.0,037.0,030.1,18.8,0000.0,0003.93,0009.88,0003.54
2023-07-10 18:25:00,SystemResetWarning,0830.3,5.01,000.00,028.7,025.6,000.0,037.1,030.1,20.4,0000.0,0003.92,0010.27,0003.52
2023-07-10 18:26:00,SystemResetWarning,0830.2,4.99,000.00,028.7,026.0,000.0,037.1,030.1,20.3,0000.0,0003.90,0010.06,0003.49
2023-07-10 18:27:00,SystemResetWarning,0830.3,4.99,000.00,028.7,026.4,000.0,037.1,030.2,19.9,0000.0,0003.89,0009.49,0003.48
2023-07-10 18:28:00,SystemResetWarning,0830.3,5.00,000.00,028.8,026.8,000.0,037.1,030.3,18.7,0000.0,0003.86,0009.17,0003.47
2023-07-10 18:29:00,SystemResetWarning,0830.3,5.00,000.00,028.8,027.1,000.0,037.2,030.4,19.2,0000.0,0003.85,0008.58,0003.46
2023-07-10 18:30:00,SystemResetWarning,0830.3,5.00,000.00,028.8,027.3,000.0,037.2,030.5,18.7,0000.0,0003.85,0008.22,0003.46
2023-07-10 18:31:00,SystemResetWarning,0830.3,4.98,000.00,028.9,026.3,000.0,037.1,030.4,19.6,0000.0,0003.84,0008.24,0003.45
2023-07-10 18:32:00,SystemResetWarning,0830.2,5.00,000.00,028.8,025.1,000.0,037.0,030.2,19.7,0000.0,0003.83,0008.26,0003.44
2023-07-10 18:33:00,SystemResetWarning,0830.2,5.01,000.00,028.8,025.0,000.0,036.9,030.1,19.3,0000.0,0003.82,0007.64,0003.43
2023-07-10 18:34:00,SystemResetWarning,0830.3,5.01,000.00,028.7,025.3,000.0,037.0,030.0,19.3,0000.0,0003.82,0007.52,0003.42
2023-07-10 18:35:00,SystemResetWarning,0830.3,4.99,000.00,028.6,025.7,000.0,037.0,030.0,19.4,0000.0,0003.85,0007.48,0003.42
2023-07-10 18:36:00,SystemResetWarning,0830.3,5.00,000.00,028.7,026.1,000.0,037.0,030.1,20.9,0000.0,0003.85,0006.78,0003.44
2023-07-10 18:37:00,SystemResetWarning,0830.2,5.01,000.00,028.7,026.5,000.0,037.0,030.2,20.7,0000.0,0003.88,0006.86,0003.45
2023-07-10 18:38:00,SystemResetWarning,0830.3,5.01,000.00,028.7,026.9,000.0,037.1,030.3,20.6,0000.0,0003.88,0006.96,0003.46
2023-07-10 18:39:00,SystemResetWarning,0830.2,4.99,000.00,028.7,027.2,000.0,037.1,030.4,21.0,0000.0,0003.87,0006.72,0003.45
2023-07-10 18:40:00,SystemResetWarning,0830.2,5.00,000.00,028.8,027.0,000.0,037.1,030.4,20.6,0000.0,0003.83,0006.53,0003.44
2023-07-10 18:41:00,SystemResetWarning,0830.2,4.97,000.00,028.8,025.6,000.0,037.0,030.3,19.9,0000.0,0003.83,0007.04,0003.43
2023-07-10 18:42:00,SystemResetWarning,0830.1,5.03,000.00,028.7,024.8,000.0,036.9,030.1,21.2,0000.0,0003.88,0007.37,0003.43
2023-07-10 18:43:00,SystemResetWarning,0830.1,5.00,000.00,028.6,025.0,000.0,036.9,029.9,20.6,0000.0,0003.92,0007.46,0003.43
2023-07-10 18:44:00,SystemResetWarning,0830.2,5.00,000.00,028.6,025.4,000.0,036.9,029.9,21.3,0000.0,0003.96,0008.57,0003.43
2023-07-10 18:45:00,SystemResetWarning,0830.2,5.00,000.00,028.6,025.8,000.0,037.0,030.0,21.0,0000.0,0003.95,0009.75,0003.43
2023-07-10 18:46:00,SystemResetWarning,0830.3,5.00,000.00,028.6,026.3,000.0,037.0,030.1,21.8,0000.0,0003.96,0009.74,0003.45
2023-07-10 18:47:00,SystemResetWarning,0830.2,5.00,000.00,028.6,026.6,000.0,037.0,030.2,20.4,0000.0,0003.96,0009.97,0003.44
2023-07-10 18:48:00,SystemResetWarning,0830.2,5.00,000.00,028.7,027.0,000.0,037.0,030.3,21.9,0000.0,0003.97,0009.91,0003.45
2023-07-10 18:49:00,SystemResetWarning,0830.2,4.99,000.00,028.7,027.3,000.0,037.0,030.4,21.1,0000.0,0003.96,0010.27,0003.44
2023-07-10 18:50:00,SystemResetWarning,0830.3,4.99,000.00,028.8,027.2,000.0,037.0,030.4,19.8,0000.0,0003.98,0010.46,0003.45
2023-07-10 18:51:00,SystemResetWarning,0830.2,5.00,000.00,028.7,025.9,000.0,036.9,030.3,20.5,0000.0,0004.02,0010.98,0003.47
2023-07-10 18:52:00,SystemResetWarning,0830.2,5.01,000.00,028.7,025.0,000.0,036.8,030.1,20.7,0000.0,0004.02,0010.91,0003.47
2023-07-10 18:53:00,SystemResetWarning,0830.2,5.02,000.00,028.6,025.1,000.0,036.8,030.0,20.6,0000.0,0003.98,0010.81,0003.47
2023-07-10 18:54:00,SystemResetWarning,0830.3,4.99,000.00,028.6,025.4,000.0,036.9,029.9,20.7,0000.0,0003.96,0010.80,0003.46
2023-07-10 18:55:00,SystemResetWarning,0830.3,5.00,000.00,028.6,025.8,000.0,036.9,030.0,21.1,0000.0,0003.95,0010.06,0003.48
2023-07-10 18:56:00,SystemResetWarning,0830.2,5.00,000.00,028.6,026.3,000.0,036.9,030.1,21.0,0000.0,0003.97,0009.32,0003.49
2023-07-10 18:57:00,SystemResetWarning,0830.2,5.00,000.00,028.6,026.7,000.0,037.0,030.2,21.5,0000.0,0003.98,0009.32,0003.49
2023-07-10 18:58:00,SystemResetWarning,0830.2,4.98,000.00,028.7,027.0,000.0,037.0,030.3,22.1,0000.0,0003.94,0009.02,0003.50
2023-07-10 18:59:00,SystemResetWarning,0830.3,5.01,000.00,028.7,027.3,000.0,037.0,030.4,22.5,0000.0,0003.91,0009.48,0003.50
